Alfredo Vásquez Cobo International Airport
SKLT : rendu visible

Aérodrome :











RETROUVEZ-NOUS SUR...

 
LOGIN :

S'inscrire | Disclaimer

   EN    FR    IT 

 









Légende :    VFR   VFR Marginal   IFR   IFR Intensif   IFR Très Intensif
Visi : 
Plafond : 
>= 8 km
>= 3000ft
5 à 8 km
1000 à 3000 ft
1500m à 5 km
500 à 1000 ft
800 à 1500m
200 à 500 ft
< 800m
< 200 ft
Symboles :   Orages  Brouillard  Fortes neiges  Fortes précipitations  Vent > 20 kt






- Altitude de l'aérodrome : 277 ft
- Code IATA : LET


SKLT - Alfredo Vásquez Cobo International

DERNIER METAR :
  • 021600Z VRB02KT 9999 BKN017 BKN100 29/26 A2996

METARs EXPIRÉS :
  • 021500Z 24004KT 9999 BKN015 BKN100 28/26 A2997
  • 021400Z 27003KT 9999 BKN013 BKN100 26/25 A2997

TAF TAF SKLT
Valide du 02 à 12h jusqu'au 03 à 12h UTC


021030Z 0212/0312 VRB02KT 9999 SCT010 BKN070
PROB40
TEMPO 0217/02220 5000 TSRA BKN010CB TX29/0218Z TN23/0311Z



MET'MAP, la Météo Aéronautique d'un coup d'oeil ! - Copyright ORBIFLY Décembre 2007 - Disclaimer

ORBIFLY MET'MAP TEAM :

Programmation & Développement : Alexandra Zaïnal
Sur une idée originale de : Baudouin d'Aumeries
Assistance à la programmation : Marc-Olivier Méhu
Soutien technique & logistique : Manuel Goepfert

Contact : metmap@orbifly.com




SOURCES & CREDITS :

   NOAA       Earth
Advisory